When you browse on this site, cookies collect data to enhance your experience and personalize the content and advertising you see.
Visit our Privacy Policy to learn more. By continuing to use the site, you agree to this use of cookies and data.
EN

Hourly Weather Vikhove

Today, 9 August, Sunday

Time Temperature Precipitation Wind Pressure Humidity
00:00 +17°C° 0 mm 2 mps 748 mmHg 83%
01:00 +17°C° 0 mm 2 mps 748 mmHg 85%
02:00 +17°C° 0 mm 3 mps 748 mmHg 88%
03:00 +16°C° 0 mm 2 mps 748 mmHg 89%
04:00 +16°C° 0 mm 2 mps 748 mmHg 90%
05:00 +16°C° 0 mm 2 mps 748 mmHg 91%
06:00 +18°C° 0 mm 3 mps 748 mmHg 84%
07:00 +20°C° 0 mm 3 mps 748 mmHg 76%
08:00 +22°C° 0 mm 3 mps 748 mmHg 68%
09:00 +24°C° 0 mm 3 mps 748 mmHg 63%
10:00 +25°C° 0 mm 3 mps 748 mmHg 57%
11:00 +26°C° 0 mm 3 mps 748 mmHg 52%
12:00 +27°C° 0 mm 3 mps 747 mmHg 50%
13:00 +27°C° 0 mm 3 mps 747 mmHg 48%
14:00 +28°C° 0 mm 3 mps 747 mmHg 46%
15:00 +28°C° 0 mm 2 mps 747 mmHg 49%
16:00 +27°C° 0 mm 2 mps 746 mmHg 51%
17:00 +27°C° 0 mm 2 mps 746 mmHg 54%
18:00 +25°C° 0.1 mm 2 mps 746 mmHg 62%
19:00 +23°C° 0.1 mm 2 mps 746 mmHg 70%
20:00 +20°C° 0.1 mm 2 mps 746 mmHg 78%
21:00 +20°C° 0 mm 2 mps 746 mmHg 80%
22:00 +19°C° 0 mm 2 mps 746 mmHg 82%
23:00 +19°C° 0 mm 1 mps 746 mmHg 85%

Tomorrow, 10 August, Monday

Time Temperature Precipitation Wind Pressure Humidity
00:00 +19°C° 0 mm 1 mps 746 mmHg 85%
01:00 +19°C° 0 mm 1 mps 746 mmHg 86%
02:00 +18°C° 0 mm 1 mps 746 mmHg 87%
03:00 +18°C° 0 mm 1 mps 746 mmHg 87%
04:00 +18°C° 0 mm 1 mps 746 mmHg 86%
05:00 +18°C° 0 mm 1 mps 746 mmHg 86%
06:00 +20°C° 0 mm 1 mps 746 mmHg 80%
07:00 +22°C° 0 mm 1 mps 746 mmHg 73%
08:00 +23°C° 0 mm 1 mps 746 mmHg 67%
09:00 +24°C° 0.2 mm 1 mps 746 mmHg 63%
10:00 +25°C° 0.2 mm 1 mps 746 mmHg 59%
11:00 +26°C° 0.2 mm 1 mps 746 mmHg 55%
12:00 +27°C° 0.2 mm 2 mps 746 mmHg 54%
13:00 +27°C° 0.2 mm 2 mps 746 mmHg 53%
14:00 +28°C° 0.2 mm 2 mps 746 mmHg 51%
15:00 +27°C° 0 mm 2 mps 746 mmHg 52%
16:00 +27°C° 0 mm 2 mps 746 mmHg 54%
17:00 +27°C° 0 mm 2 mps 746 mmHg 55%
18:00 +25°C° 0 mm 2 mps 745 mmHg 62%
19:00 +23°C° 0 mm 2 mps 745 mmHg 69%
20:00 +21°C° 0 mm 2 mps 745 mmHg 75%
21:00 +21°C° 0 mm 1 mps 745 mmHg 78%
22:00 +21°C° 0 mm 1 mps 746 mmHg 80%
23:00 +20°C° 0 mm 1 mps 746 mmHg 82%

Day after tomorrow, 11 August, Tuesday

Time Temperature Precipitation Wind Pressure Humidity
00:00 +20°C° 0 mm 1 mps 746 mmHg 83%
01:00 +19°C° 0 mm 1 mps 745 mmHg 84%
02:00 +19°C° 0 mm 1 mps 745 mmHg 86%
03:00 +19°C° 0 mm 1 mps 745 mmHg 86%
04:00 +18°C° 0 mm 1 mps 745 mmHg 86%
05:00 +18°C° 0 mm 1 mps 745 mmHg 86%
06:00 +20°C° 0 mm 1 mps 745 mmHg 79%
07:00 +22°C° 0 mm 1 mps 745 mmHg 72%
08:00 +24°C° 0 mm 2 mps 745 mmHg 65%
09:00 +25°C° 0 mm 2 mps 745 mmHg 61%
10:00 +26°C° 0 mm 2 mps 745 mmHg 56%
11:00 +27°C° 0 mm 2 mps 745 mmHg 51%
12:00 +28°C° 0 mm 2 mps 745 mmHg 49%
13:00 +28°C° 0 mm 2 mps 745 mmHg 47%
14:00 +29°C° 0 mm 2 mps 745 mmHg 46%
15:00 +28°C° 0.1 mm 2 mps 745 mmHg 49%
16:00 +28°C° 0.1 mm 2 mps 744 mmHg 53%
17:00 +27°C° 0.1 mm 3 mps 744 mmHg 57%
18:00 +25°C° 0.2 mm 3 mps 744 mmHg 64%
19:00 +23°C° 0.2 mm 2 mps 744 mmHg 72%
20:00 +20°C° 0.2 mm 2 mps 744 mmHg 80%
21:00 +20°C° 0 mm 3 mps 744 mmHg 83%
22:00 +19°C° 0 mm 3 mps 744 mmHg 87%
23:00 +18°C° 0 mm 3 mps 745 mmHg 90%

12 August, Wednesday

Time Temperature Precipitation Wind Pressure Humidity
00:00 +17°C° 0 mm 4 mps 745 mmHg 90%
01:00 +15°C° 0 mm 4 mps 745 mmHg 90%
02:00 +15°C° 0 mm 4 mps 745 mmHg 90%
03:00 +14°C° 0 mm 4 mps 745 mmHg 90%
04:00 +13°C° 0 mm 4 mps 745 mmHg 90%
05:00 +13°C° 0 mm 4 mps 745 mmHg 91%
06:00 +14°C° 0 mm 4 mps 745 mmHg 86%
07:00 +15°C° 0 mm 4 mps 745 mmHg 81%
08:00 +17°C° 0 mm 4 mps 745 mmHg 76%
09:00 +18°C° 0 mm 4 mps 746 mmHg 70%
10:00 +19°C° 0 mm 4 mps 746 mmHg 63%
11:00 +21°C° 0 mm 4 mps 746 mmHg 57%
12:00 +21°C° 0 mm 4 mps 746 mmHg 56%
13:00 +21°C° 0 mm 5 mps 746 mmHg 56%
14:00 +21°C° 0 mm 5 mps 746 mmHg 55%
15:00 +20°C° 0 mm 5 mps 746 mmHg 56%
16:00 +20°C° 0 mm 4 mps 746 mmHg 56%
17:00 +19°C° 0 mm 4 mps 747 mmHg 57%
18:00 +17°C° 0 mm 4 mps 747 mmHg 63%
19:00 +16°C° 0 mm 3 mps 747 mmHg 69%
20:00 +13°C° 0 mm 3 mps 747 mmHg 75%
21:00 +13°C° 0 mm 3 mps 747 mmHg 79%
22:00 +12°C° 0 mm 3 mps 747 mmHg 83%
23:00 +13°C° 0 mm 2 mps 747 mmHg 87%

13 August, Thursday

Time Temperature Precipitation Wind Pressure Humidity
00:00 +12°C° 0 mm 2 mps 747 mmHg 90%
01:00 +11°C° 0 mm 3 mps 746 mmHg 92%
02:00 +11°C° 0 mm 3 mps 746 mmHg 94%
03:00 +11°C° 0 mm 3 mps 746 mmHg 94%
04:00 +11°C° 0 mm 3 mps 746 mmHg 94%
05:00 +11°C° 0 mm 3 mps 746 mmHg 95%
06:00 +13°C° 0 mm 3 mps 746 mmHg 87%
07:00 +16°C° 0 mm 3 mps 747 mmHg 78%
08:00 +18°C° 0 mm 3 mps 747 mmHg 70%
09:00 +19°C° 0 mm 3 mps 747 mmHg 64%
10:00 +20°C° 0 mm 3 mps 747 mmHg 58%
11:00 +21°C° 0 mm 3 mps 747 mmHg 52%
12:00 +22°C° 0.1 mm 3 mps 746 mmHg 52%
13:00 +22°C° 0.1 mm 3 mps 746 mmHg 52%
14:00 +22°C° 0.1 mm 4 mps 746 mmHg 52%
15:00 +21°C° 0.1 mm 4 mps 746 mmHg 56%
16:00 +21°C° 0.1 mm 4 mps 746 mmHg 60%
17:00 +20°C° 0.1 mm 4 mps 746 mmHg 64%
18:00 +18°C° 0.1 mm 3 mps 746 mmHg 71%
19:00 +17°C° 0.1 mm 3 mps 746 mmHg 78%
20:00 +14°C° 0.1 mm 3 mps 746 mmHg 84%
21:00 +13°C° 0 mm 3 mps 746 mmHg 85%
22:00 +12°C° 0 mm 3 mps 747 mmHg 86%
23:00 +12°C° 0 mm 2 mps 747 mmHg 87%

14 August, Friday

Time Temperature Precipitation Wind Pressure Humidity
00:00 +12°C° 0 mm 2 mps 747 mmHg 87%
01:00 +10°C° 0 mm 2 mps 747 mmHg 87%
02:00 +10°C° 0 mm 2 mps 747 mmHg 88%
03:00 +10°C° 0 mm 2 mps 747 mmHg 88%
04:00 +9°C° 0 mm 2 mps 747 mmHg 88%
05:00 +9°C° 0 mm 2 mps 747 mmHg 88%
06:00 +12°C° 0 mm 2 mps 747 mmHg 80%
07:00 +14°C° 0 mm 2 mps 747 mmHg 71%
08:00 +16°C° 0 mm 2 mps 747 mmHg 63%
09:00 +18°C° 0 mm 2 mps 747 mmHg 59%
10:00 +19°C° 0 mm 2 mps 747 mmHg 54%
11:00 +20°C° 0 mm 2 mps 747 mmHg 49%
12:00 +21°C° 0 mm 3 mps 746 mmHg 49%
13:00 +22°C° 0 mm 3 mps 746 mmHg 49%
14:00 +22°C° 0 mm 3 mps 746 mmHg 49%
15:00 +22°C° 0 mm 3 mps 746 mmHg 52%
16:00 +22°C° 0 mm 3 mps 745 mmHg 55%
17:00 +22°C° 0 mm 3 mps 745 mmHg 57%
18:00 +20°C° 0.6 mm 3 mps 745 mmHg 66%
19:00 +18°C° 0.6 mm 3 mps 745 mmHg 74%
20:00 +17°C° 0.6 mm 2 mps 745 mmHg 83%
21:00 +16°C° 0.1 mm 2 mps 745 mmHg 84%
22:00 +16°C° 0.1 mm 2 mps 745 mmHg 85%
23:00 +15°C° 0.1 mm 2 mps 745 mmHg 86%
Show more